Location: Saint-Gilles les Bains
(21.0539°S, 55.2287°E)
Time: 09:16:08
(UTC+04:00)

Hubble Space Telescope - Visible Passes

Search period start: 20 April 2018 00:00
Search period end: 30 April 2018 00:00
Orbit: 537 x 541 km, 28.5° (Epoch: 19 April)

Date Brightness Start Highest point End Pass type
(mag) Time Alt. Az. Time Alt. Az. Time Alt. Az.
26 Apr 2.9 06:05:56 10° NNW 06:09:21 25° NNE 06:12:45 10° E visible
27 Apr 2.4 05:55:15 10° NW 05:59:00 33° NNE 06:02:45 10° E visible
28 Apr 1.8 05:44:42 10° NW 05:48:39 44° NNE 05:52:38 10° E visible
29 Apr 1.2 05:34:58 15° NW 05:38:20 59° NNE 05:42:26 10° ESE visible
